Year,Month,Day,Hour,Minute,Value (Times are PST for temperature in C)
2015,06,11,00,00,11.80
2015,06,11,00,01,11.80
2015,06,11,00,02,11.80
2015,06,11,00,03,11.80
2015,06,11,00,04,11.80
2015,06,11,00,05,11.80
2015,06,11,00,06,11.80
2015,06,11,00,07,11.80
2015,06,11,00,08,11.80
2015,06,11,00,09,11.70
2015,06,11,00,10,11.80
2015,06,11,00,11,11.80
2015,06,11,00,12,11.80
2015,06,11,00,13,11.80
2015,06,11,00,14,11.70
2015,06,11,00,15,11.70
2015,06,11,00,16,11.70
2015,06,11,00,17,11.70
2015,06,11,00,18,11.70
2015,06,11,00,19,11.80
2015,06,11,00,20,11.80
2015,06,11,00,21,11.80
2015,06,11,00,22,11.80
2015,06,11,00,23,11.80
2015,06,11,00,24,11.80
2015,06,11,00,25,11.80
2015,06,11,00,26,11.80
2015,06,11,00,27,11.80
2015,06,11,00,28,11.80
2015,06,11,00,29,11.80
2015,06,11,00,30,11.80
2015,06,11,00,31,11.80
2015,06,11,00,32,11.80
2015,06,11,00,33,11.80
2015,06,11,00,34,11.90
2015,06,11,00,35,11.90
2015,06,11,00,36,11.90
2015,06,11,00,37,11.90
2015,06,11,00,38,11.90
2015,06,11,00,39,11.90
2015,06,11,00,40,11.90
2015,06,11,00,41,11.90
2015,06,11,00,42,11.90
2015,06,11,00,43,11.90
2015,06,11,00,44,11.90
2015,06,11,00,45,11.90
2015,06,11,00,46,11.90
2015,06,11,00,47,11.90
2015,06,11,00,48,11.90
2015,06,11,00,49,12.00
2015,06,11,00,50,11.90
2015,06,11,00,51,11.90
2015,06,11,00,52,11.90
2015,06,11,00,53,11.90
2015,06,11,00,54,11.90
2015,06,11,00,55,11.90
2015,06,11,00,56,11.90
2015,06,11,00,57,11.90
2015,06,11,00,58,11.90
2015,06,11,00,59,12.00
2015,06,11,01,00,12.00
2015,06,11,01,01,12.00
2015,06,11,01,02,12.00
2015,06,11,01,03,12.00
2015,06,11,01,04,12.00
2015,06,11,01,05,12.00
2015,06,11,01,06,12.00
2015,06,11,01,07,12.00
2015,06,11,01,08,12.00
2015,06,11,01,09,12.00
2015,06,11,01,10,12.00
2015,06,11,01,11,12.00
2015,06,11,01,12,12.00
2015,06,11,01,13,12.00
2015,06,11,01,14,12.00
2015,06,11,01,15,12.00
2015,06,11,01,16,12.00
2015,06,11,01,17,12.00
2015,06,11,01,18,12.00
2015,06,11,01,19,12.00
2015,06,11,01,20,12.00
2015,06,11,01,21,12.00
2015,06,11,01,22,12.00
2015,06,11,01,23,12.00
2015,06,11,01,24,12.00
2015,06,11,01,25,12.00
2015,06,11,01,26,11.90
2015,06,11,01,27,11.90
2015,06,11,01,28,11.90
2015,06,11,01,29,11.90
2015,06,11,01,30,11.90
2015,06,11,01,31,11.90
2015,06,11,01,32,11.90
2015,06,11,01,33,11.90
2015,06,11,01,34,11.90
2015,06,11,01,35,11.90
2015,06,11,01,36,11.90
2015,06,11,01,37,11.90
2015,06,11,01,38,11.90
2015,06,11,01,39,11.90
2015,06,11,01,40,11.90
2015,06,11,01,41,11.90
2015,06,11,01,42,11.90
2015,06,11,01,43,11.90
2015,06,11,01,44,11.90
2015,06,11,01,45,11.90
2015,06,11,01,46,11.90
2015,06,11,01,47,11.90
2015,06,11,01,48,11.90
2015,06,11,01,49,11.90
2015,06,11,01,50,11.90
2015,06,11,01,51,11.90
2015,06,11,01,52,11.90
2015,06,11,01,53,11.90
2015,06,11,01,54,11.90
2015,06,11,01,55,11.90
2015,06,11,01,56,11.90
2015,06,11,01,57,11.90
2015,06,11,01,58,11.90
2015,06,11,01,59,11.90
2015,06,11,02,00,11.90
2015,06,11,02,01,11.90
2015,06,11,02,02,11.90
2015,06,11,02,03,11.80
2015,06,11,02,04,11.80
2015,06,11,02,05,11.80
2015,06,11,02,06,11.80
2015,06,11,02,07,11.80
2015,06,11,02,08,11.80
2015,06,11,02,09,11.80
2015,06,11,02,10,11.80
2015,06,11,02,11,11.80
2015,06,11,02,12,11.80
2015,06,11,02,13,11.80
2015,06,11,02,14,11.80
2015,06,11,02,15,11.80
2015,06,11,02,16,11.80
2015,06,11,02,17,11.80
2015,06,11,02,18,11.80
2015,06,11,02,19,11.80
2015,06,11,02,20,11.80
2015,06,11,02,21,11.80
2015,06,11,02,22,11.80
2015,06,11,02,23,11.80
2015,06,11,02,24,11.80
2015,06,11,02,25,11.80
2015,06,11,02,26,11.80
2015,06,11,02,27,11.80
2015,06,11,02,28,11.80
2015,06,11,02,29,11.80
2015,06,11,02,30,11.70
2015,06,11,02,31,11.70
2015,06,11,02,32,11.70
2015,06,11,02,33,11.70
2015,06,11,02,34,11.70
2015,06,11,02,35,11.70
2015,06,11,02,36,11.70
2015,06,11,02,37,11.70
2015,06,11,02,38,11.70
2015,06,11,02,39,11.70
2015,06,11,02,40,11.70
2015,06,11,02,41,11.70
2015,06,11,02,42,11.70
2015,06,11,02,43,11.70
2015,06,11,02,44,11.70
2015,06,11,02,45,11.70
2015,06,11,02,46,11.70
2015,06,11,02,47,11.70
2015,06,11,02,48,11.70
2015,06,11,02,49,11.70
2015,06,11,02,50,11.70
2015,06,11,02,51,11.70
2015,06,11,02,52,11.70
2015,06,11,02,53,11.70
2015,06,11,02,54,11.70
2015,06,11,02,55,11.70
2015,06,11,02,56,11.70
2015,06,11,02,57,11.70
2015,06,11,02,58,11.70
2015,06,11,02,59,11.70
2015,06,11,03,00,11.70
2015,06,11,03,01,11.70
2015,06,11,03,02,11.70
2015,06,11,03,03,11.70
2015,06,11,03,04,11.70
2015,06,11,03,05,11.70
2015,06,11,03,06,11.70
2015,06,11,03,07,11.70
2015,06,11,03,08,11.70
2015,06,11,03,09,11.70
2015,06,11,03,10,11.70
2015,06,11,03,11,11.70
2015,06,11,03,12,11.70
2015,06,11,03,13,11.70
2015,06,11,03,14,11.70
2015,06,11,03,15,11.70
2015,06,11,03,16,11.70
2015,06,11,03,17,11.70
2015,06,11,03,18,11.70
2015,06,11,03,19,11.70
2015,06,11,03,20,11.70
2015,06,11,03,21,11.70
2015,06,11,03,22,11.70
2015,06,11,03,23,11.70
2015,06,11,03,24,11.70
2015,06,11,03,25,11.70
2015,06,11,03,26,11.70
2015,06,11,03,27,11.70
2015,06,11,03,28,11.70
2015,06,11,03,29,11.70
2015,06,11,03,30,11.70
2015,06,11,03,31,11.70
2015,06,11,03,32,11.60
2015,06,11,03,33,11.60
2015,06,11,03,34,11.60
2015,06,11,03,35,11.60
2015,06,11,03,36,11.60
2015,06,11,03,37,11.60
2015,06,11,03,38,11.60
2015,06,11,03,39,11.60
2015,06,11,03,40,11.60
2015,06,11,03,41,11.60
2015,06,11,03,42,11.60
2015,06,11,03,43,11.60
2015,06,11,03,44,11.60
2015,06,11,03,45,11.60
2015,06,11,03,46,11.60
2015,06,11,03,47,11.60
2015,06,11,03,48,11.50
2015,06,11,03,49,11.50
2015,06,11,03,50,11.50
2015,06,11,03,51,11.50
2015,06,11,03,52,11.50
2015,06,11,03,53,11.50
2015,06,11,03,54,11.40
2015,06,11,03,55,11.40
2015,06,11,03,56,11.40
2015,06,11,03,57,11.40
2015,06,11,03,58,11.40
2015,06,11,03,59,11.40
2015,06,11,04,00,11.40
2015,06,11,04,01,11.30
2015,06,11,04,02,11.30
2015,06,11,04,03,11.30
2015,06,11,04,04,11.30
2015,06,11,04,05,11.30
2015,06,11,04,06,11.30
2015,06,11,04,07,11.30
2015,06,11,04,08,11.30
2015,06,11,04,09,11.30
2015,06,11,04,10,11.30
2015,06,11,04,11,11.30
2015,06,11,04,12,11.30
2015,06,11,04,13,11.30
2015,06,11,04,14,11.30
2015,06,11,04,15,11.30
2015,06,11,04,16,11.30
2015,06,11,04,17,11.30
2015,06,11,04,18,11.30
2015,06,11,04,19,11.30
2015,06,11,04,20,11.30
2015,06,11,04,21,11.30
2015,06,11,04,22,11.30
2015,06,11,04,23,11.30
2015,06,11,04,24,11.30
2015,06,11,04,25,11.30
2015,06,11,04,26,11.30
2015,06,11,04,27,11.30
2015,06,11,04,28,11.30
2015,06,11,04,29,11.30
2015,06,11,04,30,11.30
2015,06,11,04,31,11.30
2015,06,11,04,32,11.30
2015,06,11,04,33,11.30
2015,06,11,04,34,11.30
2015,06,11,04,35,11.30
2015,06,11,04,36,11.30
2015,06,11,04,37,11.30
2015,06,11,04,38,11.30
2015,06,11,04,39,11.30
2015,06,11,04,40,11.30
2015,06,11,04,41,11.30
2015,06,11,04,42,11.30
2015,06,11,04,43,11.30
2015,06,11,04,44,11.30
2015,06,11,04,45,11.30
2015,06,11,04,46,11.30
2015,06,11,04,47,11.30
2015,06,11,04,48,11.30
2015,06,11,04,49,11.30
2015,06,11,04,50,11.30
2015,06,11,04,51,11.30
2015,06,11,04,52,11.30
2015,06,11,04,53,11.30
2015,06,11,04,54,11.30
2015,06,11,04,55,11.30
2015,06,11,04,56,11.30
2015,06,11,04,57,11.30
2015,06,11,04,58,11.30
2015,06,11,04,59,11.30
2015,06,11,05,00,11.30
2015,06,11,05,01,11.30
2015,06,11,05,02,11.30
2015,06,11,05,03,11.30
2015,06,11,05,04,11.30
2015,06,11,05,05,11.30
2015,06,11,05,06,11.30
2015,06,11,05,07,11.30
2015,06,11,05,08,11.30
2015,06,11,05,09,11.30
2015,06,11,05,10,11.30
2015,06,11,05,11,11.30
2015,06,11,05,12,11.30
2015,06,11,05,13,11.30
2015,06,11,05,14,11.30
2015,06,11,05,15,11.30
2015,06,11,05,16,11.30
2015,06,11,05,17,11.30
2015,06,11,05,18,11.30
2015,06,11,05,19,11.30
2015,06,11,05,20,11.30
2015,06,11,05,21,11.30
2015,06,11,05,22,11.30
2015,06,11,05,23,11.30
2015,06,11,05,24,11.30
2015,06,11,05,25,11.30
2015,06,11,05,26,11.30
2015,06,11,05,27,11.30
2015,06,11,05,28,11.30
2015,06,11,05,29,11.30
2015,06,11,05,30,11.30
2015,06,11,05,31,11.30
2015,06,11,05,32,11.30
2015,06,11,05,33,11.30
2015,06,11,05,34,11.40
2015,06,11,05,35,11.40
2015,06,11,05,36,11.40
2015,06,11,05,37,11.40
2015,06,11,05,38,11.40
2015,06,11,05,39,11.40
2015,06,11,05,40,11.40
2015,06,11,05,41,11.40
2015,06,11,05,42,11.40
2015,06,11,05,43,11.40
2015,06,11,05,44,11.40
2015,06,11,05,45,11.40
2015,06,11,05,46,11.40
2015,06,11,05,47,11.40
2015,06,11,05,48,11.40
2015,06,11,05,49,11.40
2015,06,11,05,50,11.40
2015,06,11,05,51,11.40
2015,06,11,05,52,11.40
2015,06,11,05,53,11.40
2015,06,11,05,54,11.30
2015,06,11,05,55,11.30
2015,06,11,05,56,11.30
2015,06,11,05,57,11.30
2015,06,11,05,58,11.30
2015,06,11,05,59,11.30
2015,06,11,06,00,11.30
2015,06,11,06,01,11.30
2015,06,11,06,02,11.30
2015,06,11,06,03,11.40
2015,06,11,06,04,11.40
2015,06,11,06,05,11.40
2015,06,11,06,06,11.40
2015,06,11,06,07,11.40
2015,06,11,06,08,11.40
2015,06,11,06,09,11.50
2015,06,11,06,10,11.50
2015,06,11,06,11,11.60
2015,06,11,06,12,11.60
2015,06,11,06,13,11.60
2015,06,11,06,14,11.60
2015,06,11,06,15,11.60
2015,06,11,06,16,11.60
2015,06,11,06,17,11.70
2015,06,11,06,18,11.70
2015,06,11,06,19,11.70
2015,06,11,06,20,11.70
2015,06,11,06,21,11.70
2015,06,11,06,22,11.70
2015,06,11,06,23,11.70
2015,06,11,06,24,11.70
2015,06,11,06,25,11.70
2015,06,11,06,26,11.70
2015,06,11,06,27,11.80
2015,06,11,06,28,11.80
2015,06,11,06,29,11.80
2015,06,11,06,30,11.80
2015,06,11,06,31,11.80
2015,06,11,06,32,11.80
2015,06,11,06,33,11.80
2015,06,11,06,34,11.80
2015,06,11,06,35,11.80
2015,06,11,06,36,11.80
2015,06,11,06,37,11.80
2015,06,11,06,38,11.80
2015,06,11,06,39,11.80
2015,06,11,06,40,11.80
2015,06,11,06,41,11.80
2015,06,11,06,42,11.80
2015,06,11,06,43,11.80
2015,06,11,06,44,11.80
2015,06,11,06,45,11.90
2015,06,11,06,46,11.90
2015,06,11,06,47,11.90
2015,06,11,06,48,11.90
2015,06,11,06,49,11.90
2015,06,11,06,50,11.90
2015,06,11,06,51,11.90
2015,06,11,06,52,12.00
2015,06,11,06,53,12.00
2015,06,11,06,54,12.00
2015,06,11,06,55,12.00
2015,06,11,06,56,12.10
2015,06,11,06,57,12.10
2015,06,11,06,58,12.10
2015,06,11,06,59,12.10
2015,06,11,07,00,12.10
2015,06,11,07,01,12.20
2015,06,11,07,02,12.20
2015,06,11,07,03,12.20
2015,06,11,07,04,12.20
2015,06,11,07,05,12.20
2015,06,11,07,06,12.30
2015,06,11,07,07,12.30
2015,06,11,07,08,12.30
2015,06,11,07,09,12.40
2015,06,11,07,10,12.40
2015,06,11,07,11,12.50
2015,06,11,07,12,12.50
2015,06,11,07,13,12.60
2015,06,11,07,14,12.60
2015,06,11,07,15,12.70
2015,06,11,07,16,12.70
2015,06,11,07,17,12.80
2015,06,11,07,18,12.80
2015,06,11,07,19,12.90
2015,06,11,07,20,12.90
2015,06,11,07,21,13.00
2015,06,11,07,22,13.00
2015,06,11,07,23,13.10
2015,06,11,07,24,13.10
2015,06,11,07,25,13.20
2015,06,11,07,26,13.20
2015,06,11,07,27,13.30
2015,06,11,07,28,13.30
2015,06,11,07,29,13.40
2015,06,11,07,30,13.40
2015,06,11,07,31,13.50
2015,06,11,07,32,13.50
2015,06,11,07,33,13.60
2015,06,11,07,34,13.70
2015,06,11,07,35,13.80
2015,06,11,07,36,13.80
2015,06,11,07,37,13.80
2015,06,11,07,38,13.90
2015,06,11,07,39,13.90
2015,06,11,07,40,13.90
2015,06,11,07,41,14.00
2015,06,11,07,42,14.00
2015,06,11,07,43,14.10
2015,06,11,07,44,14.10
2015,06,11,07,45,14.10
2015,06,11,07,46,14.10
2015,06,11,07,47,14.10
2015,06,11,07,48,14.20
2015,06,11,07,49,14.20
2015,06,11,07,50,14.20
2015,06,11,07,51,14.30
2015,06,11,07,52,14.30
2015,06,11,07,53,14.30
2015,06,11,07,54,14.40
2015,06,11,07,55,14.40
2015,06,11,07,56,14.50
2015,06,11,07,57,14.60
2015,06,11,07,58,14.60
2015,06,11,07,59,14.70
2015,06,11,08,00,14.70
2015,06,11,08,01,14.80
2015,06,11,08,02,14.80
2015,06,11,08,03,14.90
2015,06,11,08,04,14.90
2015,06,11,08,05,15.00
2015,06,11,08,06,15.10
2015,06,11,08,07,15.10
2015,06,11,08,08,15.10
2015,06,11,08,09,15.20
2015,06,11,08,10,15.20
2015,06,11,08,11,15.20
2015,06,11,08,12,15.20
2015,06,11,08,13,15.30
2015,06,11,08,14,15.40
2015,06,11,08,15,15.40
2015,06,11,08,16,15.40
2015,06,11,08,17,15.40
2015,06,11,08,18,15.40
2015,06,11,08,19,15.50
2015,06,11,08,20,15.50
2015,06,11,08,21,15.50
2015,06,11,08,22,15.50
2015,06,11,08,23,15.50
2015,06,11,08,24,15.50
2015,06,11,08,25,15.50
2015,06,11,08,26,15.50
2015,06,11,08,27,15.60
2015,06,11,08,28,15.60
2015,06,11,08,29,15.60
2015,06,11,08,30,15.60
2015,06,11,08,31,15.60
2015,06,11,08,32,15.60
2015,06,11,08,33,15.70
2015,06,11,08,34,15.70
2015,06,11,08,35,15.80
2015,06,11,08,36,15.80
2015,06,11,08,37,15.80
2015,06,11,08,38,15.80
2015,06,11,08,39,15.90
2015,06,11,08,40,15.90
2015,06,11,08,41,15.90
2015,06,11,08,42,16.00
2015,06,11,08,43,16.00
2015,06,11,08,44,16.00
2015,06,11,08,45,16.10
2015,06,11,08,46,16.10
2015,06,11,08,47,16.10
2015,06,11,08,48,16.20
2015,06,11,08,49,16.20
2015,06,11,08,50,16.30
2015,06,11,08,51,16.30
2015,06,11,08,52,16.40
2015,06,11,08,53,16.40
2015,06,11,08,54,16.50
2015,06,11,08,55,16.60
2015,06,11,08,56,16.60
2015,06,11,08,57,16.60
2015,06,11,08,58,16.60
2015,06,11,08,59,16.60
2015,06,11,09,00,16.60
2015,06,11,09,01,16.60
2015,06,11,09,02,16.60
2015,06,11,09,03,16.70
2015,06,11,09,04,16.70
2015,06,11,09,05,16.80
2015,06,11,09,06,16.90
2015,06,11,09,07,17.10
2015,06,11,09,08,17.20
2015,06,11,09,09,17.30
2015,06,11,09,10,17.40
2015,06,11,09,11,17.50
2015,06,11,09,12,17.50
2015,06,11,09,13,17.40
2015,06,11,09,14,17.30
2015,06,11,09,15,17.20
2015,06,11,09,16,17.20
2015,06,11,09,17,17.30
2015,06,11,09,18,17.30
2015,06,11,09,19,17.30
2015,06,11,09,20,17.40
2015,06,11,09,21,17.50
2015,06,11,09,22,17.60
2015,06,11,09,23,17.60
2015,06,11,09,24,17.70
2015,06,11,09,25,17.80
2015,06,11,09,26,17.90
2015,06,11,09,27,18.00
2015,06,11,09,28,18.00
2015,06,11,09,29,18.10
2015,06,11,09,30,18.20
2015,06,11,09,31,18.30
2015,06,11,09,32,18.30
2015,06,11,09,33,18.40
2015,06,11,09,34,18.40
2015,06,11,09,35,18.50
2015,06,11,09,36,18.50
2015,06,11,09,37,18.60
2015,06,11,09,38,18.60
2015,06,11,09,39,18.70
2015,06,11,09,40,18.70
2015,06,11,09,41,18.80
2015,06,11,09,42,18.80
2015,06,11,09,43,18.80
2015,06,11,09,44,18.80
2015,06,11,09,45,18.80
2015,06,11,09,46,18.70
2015,06,11,09,47,18.70
2015,06,11,09,48,18.60
2015,06,11,09,49,18.60
2015,06,11,09,50,18.50
2015,06,11,09,51,18.40
2015,06,11,09,52,18.30
2015,06,11,09,53,18.30
2015,06,11,09,54,18.20
2015,06,11,09,55,18.20
2015,06,11,09,56,18.10
2015,06,11,09,57,18.10
2015,06,11,09,58,18.10
2015,06,11,09,59,18.20
2015,06,11,10,00,18.30
2015,06,11,10,01,18.40
2015,06,11,10,02,18.50
2015,06,11,10,03,18.60
2015,06,11,10,04,18.80
2015,06,11,10,05,18.70
2015,06,11,10,06,18.70
2015,06,11,10,07,18.60
2015,06,11,10,08,18.60
2015,06,11,10,09,18.60
2015,06,11,10,10,18.60
2015,06,11,10,11,18.50
2015,06,11,10,12,18.60
2015,06,11,10,13,18.70
2015,06,11,10,14,18.70
2015,06,11,10,15,18.70
2015,06,11,10,16,18.80
2015,06,11,10,17,18.80
2015,06,11,10,18,18.90
2015,06,11,10,19,18.90
2015,06,11,10,20,19.00
2015,06,11,10,21,19.00
2015,06,11,10,22,19.10
2015,06,11,10,23,19.20
2015,06,11,10,24,19.20
2015,06,11,10,25,19.20
2015,06,11,10,26,19.10
2015,06,11,10,27,19.00
2015,06,11,10,28,19.00
2015,06,11,10,29,18.90
2015,06,11,10,30,18.90
2015,06,11,10,31,18.70
2015,06,11,10,32,18.60
2015,06,11,10,33,18.50
2015,06,11,10,34,18.50
2015,06,11,10,35,18.50
2015,06,11,10,36,18.50
2015,06,11,10,37,18.40
2015,06,11,10,38,18.40
2015,06,11,10,39,18.30
2015,06,11,10,40,18.30
2015,06,11,10,41,18.30
2015,06,11,10,42,18.30
2015,06,11,10,43,18.40
2015,06,11,10,44,18.40
2015,06,11,10,45,18.40
2015,06,11,10,46,18.40
2015,06,11,10,47,18.40
2015,06,11,10,48,18.40
2015,06,11,10,49,18.40
2015,06,11,10,50,18.40
2015,06,11,10,51,18.40
2015,06,11,10,52,18.50
2015,06,11,10,53,18.60
2015,06,11,10,54,18.60
2015,06,11,10,55,18.70
2015,06,11,10,56,18.70
2015,06,11,10,57,18.70
2015,06,11,10,58,18.70
2015,06,11,10,59,18.70
2015,06,11,11,00,18.80
2015,06,11,11,01,18.80
2015,06,11,11,02,19.00
2015,06,11,11,03,19.10
2015,06,11,11,04,19.10
2015,06,11,11,05,19.00
2015,06,11,11,06,18.90
2015,06,11,11,07,18.90
2015,06,11,11,08,18.80
2015,06,11,11,09,18.70
2015,06,11,11,10,18.70
2015,06,11,11,11,18.80
2015,06,11,11,12,18.80
2015,06,11,11,13,18.80
2015,06,11,11,14,18.80
2015,06,11,11,15,18.70
2015,06,11,11,16,18.80
2015,06,11,11,17,18.80
2015,06,11,11,18,18.70
2015,06,11,11,19,18.70
2015,06,11,11,20,18.70
2015,06,11,11,21,18.70
2015,06,11,11,22,18.70
2015,06,11,11,23,18.70
2015,06,11,11,24,18.70
2015,06,11,11,25,18.70
2015,06,11,11,26,18.70
2015,06,11,11,27,18.60
2015,06,11,11,28,18.60
2015,06,11,11,29,18.70
2015,06,11,11,30,18.80
2015,06,11,11,31,18.80
2015,06,11,11,32,18.80
2015,06,11,11,33,18.80
2015,06,11,11,34,18.60
2015,06,11,11,35,18.50
2015,06,11,11,36,18.50
2015,06,11,11,37,18.40
2015,06,11,11,38,18.40
2015,06,11,11,39,18.50
2015,06,11,11,40,18.50
2015,06,11,11,41,18.60
2015,06,11,11,42,18.70
2015,06,11,11,43,18.80
2015,06,11,11,44,18.80
2015,06,11,11,45,18.80
2015,06,11,11,46,18.80
2015,06,11,11,47,18.60
2015,06,11,11,48,18.60
2015,06,11,11,49,18.50
2015,06,11,11,50,18.50
2015,06,11,11,51,18.60
2015,06,11,11,52,18.60
2015,06,11,11,53,18.70
2015,06,11,11,54,18.70
2015,06,11,11,55,18.70
2015,06,11,11,56,18.80
2015,06,11,11,57,18.80
2015,06,11,11,58,18.80
2015,06,11,11,59,18.90
2015,06,11,12,00,18.90
2015,06,11,12,01,18.80
2015,06,11,12,02,18.80
2015,06,11,12,03,18.80
2015,06,11,12,04,18.80
2015,06,11,12,05,18.80
2015,06,11,12,06,18.80
2015,06,11,12,07,18.80
2015,06,11,12,08,18.80
2015,06,11,12,09,18.80
2015,06,11,12,10,18.80
2015,06,11,12,11,18.80
2015,06,11,12,12,18.80
2015,06,11,12,13,18.80
2015,06,11,12,14,18.80
2015,06,11,12,15,18.70
2015,06,11,12,16,18.70
2015,06,11,12,17,18.70
2015,06,11,12,18,18.90
2015,06,11,12,19,18.90
2015,06,11,12,20,18.90
2015,06,11,12,21,19.00
2015,06,11,12,22,19.00
2015,06,11,12,23,19.00
2015,06,11,12,24,19.00
2015,06,11,12,25,18.90
2015,06,11,12,26,18.80
2015,06,11,12,27,18.80
2015,06,11,12,28,18.70
2015,06,11,12,29,18.60
2015,06,11,12,30,18.50
2015,06,11,12,31,18.40
2015,06,11,12,32,18.30
2015,06,11,12,33,18.30
2015,06,11,12,34,18.40
2015,06,11,12,35,18.40
2015,06,11,12,36,18.40
2015,06,11,12,37,18.40
2015,06,11,12,38,18.50
2015,06,11,12,39,18.60
2015,06,11,12,40,18.70
2015,06,11,12,41,18.80
2015,06,11,12,42,18.90
2015,06,11,12,43,18.90
2015,06,11,12,44,18.80
2015,06,11,12,45,18.80
2015,06,11,12,46,18.70
2015,06,11,12,47,18.80
2015,06,11,12,48,18.90
2015,06,11,12,49,18.90
2015,06,11,12,50,18.90
2015,06,11,12,51,18.90
2015,06,11,12,52,18.80
2015,06,11,12,53,18.70
2015,06,11,12,54,18.60
2015,06,11,12,55,18.50
2015,06,11,12,56,18.50
2015,06,11,12,57,18.50
2015,06,11,12,58,18.50
2015,06,11,12,59,18.50
2015,06,11,13,00,18.50
2015,06,11,13,01,18.40
2015,06,11,13,02,18.30
2015,06,11,13,03,18.20
2015,06,11,13,04,18.20
2015,06,11,13,05,18.20
2015,06,11,13,06,18.30
2015,06,11,13,07,18.30
2015,06,11,13,08,18.40
2015,06,11,13,09,18.40
2015,06,11,13,10,18.50
2015,06,11,13,11,18.60
2015,06,11,13,12,18.60
2015,06,11,13,13,18.70
2015,06,11,13,14,18.80
2015,06,11,13,15,18.90
2015,06,11,13,16,19.00
2015,06,11,13,17,19.00
2015,06,11,13,18,19.00
2015,06,11,13,19,19.00
2015,06,11,13,20,19.00
2015,06,11,13,21,19.10
2015,06,11,13,22,19.10
2015,06,11,13,23,19.10
2015,06,11,13,24,19.10
2015,06,11,13,25,18.90
2015,06,11,13,26,18.90
2015,06,11,13,27,18.80
2015,06,11,13,28,18.80
2015,06,11,13,29,18.70
2015,06,11,13,30,18.60
2015,06,11,13,31,18.60
2015,06,11,13,32,18.50
2015,06,11,13,33,18.50
2015,06,11,13,34,18.50
2015,06,11,13,35,18.50
2015,06,11,13,36,18.50
2015,06,11,13,37,18.50
2015,06,11,13,38,18.50
2015,06,11,13,39,18.50
2015,06,11,13,40,18.50
2015,06,11,13,41,18.40
2015,06,11,13,42,18.50
2015,06,11,13,43,18.50
2015,06,11,13,44,18.50
2015,06,11,13,45,18.60
2015,06,11,13,46,18.60
2015,06,11,13,47,18.60
2015,06,11,13,48,18.60
2015,06,11,13,49,18.60
2015,06,11,13,50,18.60
2015,06,11,13,51,18.60
2015,06,11,13,52,18.60
2015,06,11,13,53,18.60
2015,06,11,13,54,18.60
2015,06,11,13,55,18.60
2015,06,11,13,56,18.50
2015,06,11,13,57,18.50
2015,06,11,13,58,18.30
2015,06,11,13,59,18.30
2015,06,11,14,00,18.40
2015,06,11,14,01,18.60
2015,06,11,14,02,18.60
2015,06,11,14,03,18.60
2015,06,11,14,04,18.60
2015,06,11,14,05,18.60
2015,06,11,14,06,18.60
2015,06,11,14,07,18.50
2015,06,11,14,08,18.40
2015,06,11,14,09,18.40
2015,06,11,14,10,18.30
2015,06,11,14,11,18.20
2015,06,11,14,12,18.10
2015,06,11,14,13,18.10
2015,06,11,14,14,18.10
2015,06,11,14,15,18.00
2015,06,11,14,16,18.10
2015,06,11,14,17,18.20
2015,06,11,14,18,18.20
2015,06,11,14,19,18.20
2015,06,11,14,20,18.10
2015,06,11,14,21,18.10
2015,06,11,14,22,18.10
2015,06,11,14,23,18.10
2015,06,11,14,24,18.10
2015,06,11,14,25,18.10
2015,06,11,14,26,18.10
2015,06,11,14,27,18.20
2015,06,11,14,28,18.30
2015,06,11,14,29,18.30
2015,06,11,14,30,18.30
2015,06,11,14,31,18.40
2015,06,11,14,32,18.40
2015,06,11,14,33,18.40
2015,06,11,14,34,18.40
2015,06,11,14,35,18.40
2015,06,11,14,36,18.40
2015,06,11,14,37,18.30
2015,06,11,14,38,18.30
2015,06,11,14,39,18.30
2015,06,11,14,40,18.20
2015,06,11,14,41,18.30
2015,06,11,14,42,18.30
2015,06,11,14,43,18.40
2015,06,11,14,44,18.40
2015,06,11,14,45,18.30
2015,06,11,14,46,18.30
2015,06,11,14,47,18.20
2015,06,11,14,48,18.10
2015,06,11,14,49,18.10
2015,06,11,14,50,18.20
2015,06,11,14,51,18.20
2015,06,11,14,52,18.10
2015,06,11,14,53,18.00
2015,06,11,14,54,18.00
2015,06,11,14,55,18.10
2015,06,11,14,56,18.20
2015,06,11,14,57,18.20
2015,06,11,14,58,18.10
2015,06,11,14,59,18.00
2015,06,11,15,00,18.00
2015,06,11,15,01,18.00
2015,06,11,15,02,18.00
2015,06,11,15,03,17.90
2015,06,11,15,04,18.00
2015,06,11,15,05,18.00
2015,06,11,15,06,17.90
2015,06,11,15,07,17.90
2015,06,11,15,08,17.80
2015,06,11,15,09,17.80
2015,06,11,15,10,17.80
2015,06,11,15,11,17.90
2015,06,11,15,12,18.00
2015,06,11,15,13,18.10
2015,06,11,15,14,18.20
2015,06,11,15,15,18.20
2015,06,11,15,16,18.20
2015,06,11,15,17,18.20
2015,06,11,15,18,18.20
2015,06,11,15,19,18.20
2015,06,11,15,20,18.30
2015,06,11,15,21,18.20
2015,06,11,15,22,18.20
2015,06,11,15,23,18.20
2015,06,11,15,24,18.20
2015,06,11,15,25,18.20
2015,06,11,15,26,18.20
2015,06,11,15,27,18.30
2015,06,11,15,28,18.30
2015,06,11,15,29,18.40
2015,06,11,15,30,18.40
2015,06,11,15,31,18.40
2015,06,11,15,32,18.50
2015,06,11,15,33,18.60
2015,06,11,15,34,18.70
2015,06,11,15,35,18.70
2015,06,11,15,36,18.70
2015,06,11,15,37,18.60
2015,06,11,15,38,18.60
2015,06,11,15,39,18.60
2015,06,11,15,40,18.70
2015,06,11,15,41,18.70
2015,06,11,15,42,18.80
2015,06,11,15,43,18.80
2015,06,11,15,44,18.90
2015,06,11,15,45,18.80
2015,06,11,15,46,18.70
2015,06,11,15,47,18.60
2015,06,11,15,48,18.60
2015,06,11,15,49,18.50
2015,06,11,15,50,18.40
2015,06,11,15,51,18.30
2015,06,11,15,52,18.20
2015,06,11,15,53,18.20
2015,06,11,15,54,18.10
2015,06,11,15,55,18.00
2015,06,11,15,56,17.90
2015,06,11,15,57,17.90
2015,06,11,15,58,17.70
2015,06,11,15,59,17.60
2015,06,11,16,00,17.50
2015,06,11,16,01,17.40
2015,06,11,16,02,17.30
2015,06,11,16,03,17.30
2015,06,11,16,04,17.30
2015,06,11,16,05,17.30
2015,06,11,16,06,17.30
2015,06,11,16,07,17.30
2015,06,11,16,08,17.30
2015,06,11,16,09,17.30
2015,06,11,16,10,17.20
2015,06,11,16,11,17.20
2015,06,11,16,12,17.20
2015,06,11,16,13,17.10
2015,06,11,16,14,17.00
2015,06,11,16,15,16.90
2015,06,11,16,16,17.00
2015,06,11,16,17,17.10
2015,06,11,16,18,17.10
2015,06,11,16,19,17.20
2015,06,11,16,20,17.20
2015,06,11,16,21,17.30
2015,06,11,16,22,17.30
2015,06,11,16,23,17.40
2015,06,11,16,24,17.40
2015,06,11,16,25,17.30
2015,06,11,16,26,17.30
2015,06,11,16,27,17.40
2015,06,11,16,28,17.40
2015,06,11,16,29,17.40
2015,06,11,16,30,17.40
2015,06,11,16,31,17.40
2015,06,11,16,32,17.40
2015,06,11,16,33,17.40
2015,06,11,16,34,17.50
2015,06,11,16,35,17.50
2015,06,11,16,36,17.70
2015,06,11,16,37,17.80
2015,06,11,16,38,17.90
2015,06,11,16,39,18.00
2015,06,11,16,40,18.10
2015,06,11,16,41,18.10
2015,06,11,16,42,18.10
2015,06,11,16,43,18.20
2015,06,11,16,44,18.20
2015,06,11,16,45,18.20
2015,06,11,16,46,18.20
2015,06,11,16,47,18.30
2015,06,11,16,48,18.30
2015,06,11,16,49,18.40
2015,06,11,16,50,18.30
2015,06,11,16,51,18.40
2015,06,11,16,52,18.30
2015,06,11,16,53,18.30
2015,06,11,16,54,18.30
2015,06,11,16,55,18.30
2015,06,11,16,56,18.20
2015,06,11,16,57,18.20
2015,06,11,16,58,18.20
2015,06,11,16,59,18.20
2015,06,11,17,00,18.30
2015,06,11,17,01,18.30
2015,06,11,17,02,18.40
2015,06,11,17,03,18.40
2015,06,11,17,04,18.40
2015,06,11,17,05,18.40
2015,06,11,17,06,18.40
2015,06,11,17,07,18.40
2015,06,11,17,08,18.40
2015,06,11,17,09,18.30
2015,06,11,17,10,18.20
2015,06,11,17,11,18.10
2015,06,11,17,12,18.10
2015,06,11,17,13,18.10
2015,06,11,17,14,18.10
2015,06,11,17,15,18.20
2015,06,11,17,16,18.20
2015,06,11,17,17,18.20
2015,06,11,17,18,18.20
2015,06,11,17,19,18.30